This demonstration page uses our WeatherBlox Daily Observations layout. Learn more.

Left ArrowRight Arrow

44.8408, -93.29828

Hourly Observations for November 30, 2015

Temp ( °F °C ) Dew Point ( °F °C ) Humidity (%) Winds ( mph kmh ) Pressure ( in mb ) Visibility ( mi km ) Precip ( " mm )
12:53 am 00:53 Cloudy 31 -0.6 24 -4.4 76 76 E 5 7 30.30 1026 10 16 0.00 0.00
1:53 am 01:53 Cloudy 31 -0.6 23 -5 72 72 E 6 9 30.29 1026 10 16 0.00 0.00
2:53 am 02:53 Cloudy 31 -0.6 23 -5 72 72 E 7 11 30.28 1026 10 16 0.00 0.00
3:53 am 03:53 Cloudy 31 -0.6 24 -4.4 76 76 ESE 7 11 30.27 1025 10 16 0.00 0.00
4:30 am 04:30 Cloudy with Light Snow 30 -1 25 -4 80 80 SE 10 17 30.27 1025 2 3 0.00 0.00
4:34 am 04:34 Cloudy with Light Snow 30 -1.1 25 -3.9 82 82 SE 13 20 30.27 1025 1 2 0.00 0.03
4:42 am 04:42 Mostly Cloudy with Snow 30 -1 27 -3 86 86 SE 10 17 30.27 1025 1 1 0.00 0.00
4:50 am 04:50 Mostly Cloudy with Snow 28 -2 27 -3 93 93 SE 9 15 30.30 1026 1 1 0.00 0.00
4:53 am 04:53 Mostly Cloudy with Snow 29 -1.7 27 -2.8 92 92 SSE 10 17 30.27 1025 1 1 0.01 0.25
5:04 am 05:04 Mostly Cloudy with Heavy Snow 28 -2.2 27 -2.8 96 96 SSE 7 11 30.30 1026 0 0 0.02 0.51
5:16 am 05:16 Mostly Cloudy with Snow 28 -2 27 -3 93 93 SE 5 7 30.30 1026 1 1 0.00 0.00
5:34 am 05:34 Mostly Cloudy with Heavy Snow 28 -2.2 27 -2.8 96 96 ESE 7 11 30.30 1026 0 0 0.08 2.03
5:41 am 05:41 Mostly Cloudy with Snow 28 -2.2 27 -2.8 96 96 ESE 6 9 30.27 1025 1 1 0.09 2.29
5:49 am 05:49 Mostly Cloudy with Light Snow 28 -2 28 -2 100 100 ESE 7 11 30.27 1025 1 1 0.10 2.54
5:53 am 05:53 Mostly Cloudy with Light Snow 29 -1.7 27 -2.8 92 92 E 6 9 30.26 1025 1 2 0.10 2.54
6:03 am 06:03 Mostly Cloudy with Light Snow 28 -2 28 -2 100 100 E 6 9 30.27 1025 1 1 0.00 0.00
6:11 am 06:11 Mostly Cloudy with Light Snow 29 -1.7 28 -2.2 96 96 ENE 8 13 30.27 1025 1 1 0.01 0.25
6:18 am 06:18 Mostly Cloudy with Light Snow 29 -1.7 27 -2.8 92 92 ENE 7 11 30.27 1025 1 2 0.02 0.51
6:31 am 06:31 Cloudy with Light Snow 29 -1.7 27 -2.8 92 92 ENE 7 11 30.27 1025 2 2 0.02 0.51
6:39 am 06:39 Cloudy with Light Snow 29 -1.7 27 -2.8 92 92 ENE 7 11 30.27 1025 2 3 0.02 0.51
6:50 am 06:50 Cloudy with Light Snow 28 -2 27 -3 93 93 ENE 8 13 30.27 1025 3 4 0.02 0.51
6:53 am 06:53 Cloudy with Light Snow 29 -1.7 28 -2.2 96 96 ENE 8 13 30.23 1024 3 5 0.02 0.51
7:53 am 07:53 Cloudy with Light Snow 30 -1.1 28 -2.2 92 92 E 8 13 30.22 1023 5 8 0.01 0.25
8:33 am 08:33 Cloudy with Light Snow 30 -1.1 27 -2.8 88 88 VRB 5 7 30.21 1023 2 2 0.00 0.03
8:37 am 08:37 Cloudy with Light Snow 30 -1.1 28 -2.2 92 92 NE 6 9 30.21 1023 1 2 0.00 0.03
8:53 am 08:53 Cloudy with Light Snow 30 -1.1 28 -2.2 92 92 NNE 5 7 30.21 1023 2 2 0.01 0.25
9:10 am 09:10 Cloudy with Light Snow 30 -1.1 28 -2.2 92 92 NE 7 11 30.21 1023 2 3 0.00 0.03
9:18 am 09:18 Cloudy with Light Snow 30 -1.1 28 -2.2 92 92 ENE 8 13 30.21 1023 7 11 0.00 0.03
9:53 am 09:53 Cloudy 31 -0.6 27 -2.8 85 85 NE 5 7 30.19 1023 10 16 0.00 0.03
10:53 am 10:53 Cloudy 31 -0.6 27 -2.8 85 85 NE 9 15 30.17 1022 10 16 0.03 0.76
11:53 am 11:53 Cloudy 32 0 27 -2.8 82 82 ENE 12 19 30.15 1021 10 16 0.00 0.00
12:03 pm 12:03 Cloudy 32 0 27 -3 80 80 ENE 10 17 30.15 1021 10 16 0.00 0.00
12:29 pm 12:29 Cloudy 32 0 28 -2.2 85 85 ENE 9 15 30.12 1020 10 16 0.00 0.00
12:53 pm 12:53 Cloudy with Drizzle 33 0.6 28 -2.2 82 82 ENE 10 17 30.10 1019 10 16 0.00 0.03
1:38 pm 13:38 Cloudy 34 1 28 -2 81 81 NNE 14 22 30.06 1018 10 16 0.00 0.00
1:53 pm 13:53 Cloudy 34 1.1 29 -1.7 82 82 NE 9 15 30.06 1018 10 16 0.00 0.03
2:05 pm 14:05 Cloudy 34 1.1 28 -2.2 79 79 NNE 9 15 30.06 1018 10 16 0.00 0.00
2:33 pm 14:33 Cloudy 34 1.1 28 -2.2 79 79 ENE 8 13 30.06 1018 10 16 0.00 0.00
2:53 pm 14:53 Cloudy 34 1.1 28 -2.2 79 79 ENE 9 15 30.04 1017 10 16 0.00 0.00
3:53 pm 15:53 Cloudy with Light Snow 34 1.1 29 -1.7 82 82 ENE 9 15 30.02 1017 5 8 0.00 0.03
3:58 pm 15:58 Cloudy with Light Snow 34 1 28 -2 81 81 NE 10 17 30.03 1017 2 3 0.00 0.00
4:53 pm 16:53 Cloudy with Light Snow 33 0.6 31 -0.6 92 92 NE 10 17 30.00 1016 3 5 0.02 0.51
5:44 pm 17:44 Cloudy with Light Snow 34 1.1 31 -0.6 89 89 ENE 10 17 30.00 1016 2 3 0.00 0.03
5:46 pm 17:46 Cloudy with Light Snow 34 1.1 31 -0.6 89 89 NE 10 17 30.00 1016 2 3 0.01 0.25
5:53 pm 17:53 Cloudy with Light Snow 34 1.1 31 -0.6 89 89 ENE 10 17 29.96 1015 2 2 0.01 0.25
6:00 pm 18:00 Cloudy with Light Snow 34 1 30 -1 87 87 ENE 13 20 30.00 1016 1 1 0.00 0.00
6:19 pm 18:19 Mostly Cloudy with Snow 33 0.6 31 -0.6 92 92 ENE 15 24 29.97 1015 1 1 0.05 1.27
6:48 pm 18:48 Cloudy with Light Snow 34 1 30 -1 87 87 ENE 14 22 29.94 1014 2 3 0.09 2.29
6:53 pm 18:53 Cloudy with Light Snow 33 0.6 31 -0.6 92 92 ENE 12 19 29.92 1013 2 3 0.09 2.29
7:08 pm 19:08 Cloudy with Light Snow 34 1 30 -1 87 87 ENE 8 13 29.97 1015 3 4 0.00 0.00
7:26 pm 19:26 Cloudy with Light Snow 34 1 30 -1 87 87 E 10 17 29.97 1015 1 2 0.00 0.00
7:36 pm 19:36 Cloudy with Light Snow 33 0.6 31 -0.6 92 92 ENE 8 13 29.94 1014 3 4 0.03 0.76
7:40 pm 19:40 Cloudy with Light Snow 34 1 30 -1 87 87 ENE 10 17 29.94 1014 4 6 0.00 0.00
7:50 pm 19:50 Cloudy with Mist and Fog 34 1 30 -1 87 87 ENE 12 19 29.94 1014 5 8 0.00 0.00
7:53 pm 19:53 Cloudy with Light Snow 33 0.6 31 -0.6 92 92 ENE 13 20 29.91 1013 5 8 0.03 0.76
8:05 pm 20:05 Cloudy with Light Snow 34 1.1 31 -0.6 89 89 E 12 19 29.94 1014 4 6 0.00 0.03
8:23 pm 20:23 Cloudy with Light Snow 34 1.1 31 -0.6 89 89 E 14 22 29.94 1014 3 4 0.00 0.03
8:36 pm 20:36 Cloudy with Light Snow 33 0.6 31 -0.6 92 92 E 13 20 29.91 1013 2 2 0.01 0.25
8:43 pm 20:43 Cloudy with Light Snow 33 0.6 31 -0.6 92 92 E 12 19 29.91 1013 2 2 0.01 0.25
8:46 pm 20:46 Cloudy with Light Snow 34 1 30 -1 87 87 E 13 20 29.91 1013 3 5 0.00 0.00
8:53 pm 20:53 Cloudy with Light Snow 33 0.6 31 -0.6 92 92 E 9 15 29.88 1012 4 6 0.01 0.25
8:58 pm 20:58 Cloudy with Light Freezing Drizzle 34 1 30 -1 87 87 E 10 17 29.91 1013 4 6 0.00 0.00
9:35 pm 21:35 Cloudy with Drizzle 33 0.6 31 -0.6 92 92 E 12 19 29.88 1012 3 5 0.00 0.03
9:53 pm 21:53 Cloudy with Drizzle 33 0.6 31 -0.6 92 92 E 13 20 29.83 1010 3 4 0.00 0.03
10:10 pm 22:10 Cloudy with Light Snow 34 1 30 -1 87 87 E 12 19 29.85 1011 3 5 0.00 0.00
10:22 pm 22:22 Cloudy with Light Snow 34 1 30 -1 87 87 E 12 19 29.85 1011 2 3 0.00 0.00
10:36 pm 22:36 Cloudy with Light Snow 34 1 30 -1 87 87 E 12 19 29.83 1010 2 3 0.00 0.00
10:43 pm 22:43 Cloudy with Light Snow 33 0.6 31 -0.6 92 92 E 14 22 29.83 1010 1 2 0.02 0.51
10:53 pm 22:53 Cloudy with Light Snow 33 0.6 31 -0.6 92 92 E 13 20 29.80 1009 2 3 0.03 0.76
11:00 pm 23:00 Cloudy with Light Snow 33 0.6 31 -0.6 92 92 E 12 19 29.83 1010 2 3 0.01 0.25
11:09 pm 23:09 Cloudy with Light Snow 33 0.6 31 -0.6 92 92 E 12 19 29.83 1010 3 4 0.01 0.25
11:22 pm 23:22 Cloudy with Light Snow 33 0.6 31 -0.6 92 92 E 12 19 29.83 1010 2 3 0.01 0.25
11:48 pm 23:48 Cloudy with Light Snow 34 1 30 -1 87 87 E 10 17 29.83 1010 1 2 0.03 0.76
11:53 pm 23:53 Cloudy with Light Snow 33 0.6 31 -0.6 92 92 E 10 17 29.78 1009 1 2 0.04 1.02

Powered by AerisWeather